Tracking 29892 objects as of 21-Nov-2024
HD Live streaming from Space Station
objects crossing your sky now

ARIANE 2 DEB

Track ARIANE 2 DEB now!


NORAD ID: 27595
Int'l Code: 1988-040E
Perigee: 487.8 km
Apogee: 35,368.3 km
Inclination: 7.2 °
Period: 628.3 minutes
Semi major axis: 24299 km
RCS: 8.9719 m2 (large)
Launch date: May 17, 1988
Source: France (FR)
Launch site: FRENCH GUIANA (FRGUI)

Note: This is SATELLITE DEBRIS
Your satellite tracking list
Your tracking list is empty




NASA's NSSDC Master Catalog

Two Line Element Set (TLE):
1 27595U 88040E   24325.86494304  .00000292  00000-0  25354-2 0  9996
2 27595   7.1868 219.8325 7177340   6.5251 359.3518  2.29201957186509
Source of the keplerian elements: AFSPC